Location: Newark
(30.0333°N, 31.2167°E)
Time: 01:09:12
(UTC+00:00)

Tiros 1 - Pass Details

Date: 28 January 2020
Orbit: 631 x 664 km, 48.4° (Epoch: 21 February)

Event Time Altitude Azimuth Distance (km) Brightness Sun altitude
Rises 10:35:47 0° 283° (WNW) 2,928 10.5 41.2°
Reaches altitude 10° 10:39:21 10° 311° (NW) 2,029 9.6 41.1°
Maximum altitude 10:41:32 13° 340° (NNW) 1,835 9.2 41.0°
Drops below altitude 10° 10:43:45 10° 8° (N) 2,041 9.4 40.9°
Sets 10:47:22 0° 36° (NE) 2,961 10.1 40.8°
